Regional Weather Roundup
Issued by NWS

Home | Current Version | Previous Version | Text Only | Print | Product List | Glossary On
Versions: 1 2 3 4 5 6 7 8 9 10 11 12 13 14 15 16 17 18 19 20 21 22 23 24 25 26 27 28 29 30 31 32 33 34 35 36 37 38 39 40 41 42 43 44 45 46 47 48 49 50
467
ASUS43 KOAX 271810
RWRNE

WEATHER ROUNDUP FOR NEBRASKA
NATIONAL WEATHER SERVICE OMAHA NE
100 PM CDT WED JUL 27 2016

NOTES: SATELLITE DATA IS BEING USED TO AUGMENT CLOUD COVER ABOVE
       12000 FEET.
       "FAIR" INDICATES FEW OR NO CLOUDS BELOW 12,000 FEET WITH NO
       SIGNIFICANT WEATHER AND/OR OBSTRUCTIONS TO VISIBILITY.

  * THESE STATIONS DO NOT REPORT WEATHER SUCH AS RAIN...SNOW OR FOG.

NEZ001>004-019>022-054>056-271900-
NEBRASKA PANHANDLE

CITY           SKY/WX    TMP DP  RH WIND       PRES   REMARKS
SCOTTSBLUFF    SUNNY     79  57  46 S6        30.15F
6HR MIN TEMP:  64; 6HR MAX TEMP:  80; 6HR PCP:  0.01;

ALLIANCE       SUNNY     81  60  48 VRB7      30.13R
6HR MIN TEMP:  61; 6HR MAX TEMP:  81; 6HR PCP:  0.02;

CHADRON        SUNNY     81  60  48 NE15      30.11R
6HR MIN TEMP:  62; 6HR MAX TEMP:  84; 6HR PCP:  0.13;

KIMBALL        SUNNY     78  59  52 NE8       30.19F
SIDNEY         SUNNY     83  58  42 MISG      30.17S
6HR MIN TEMP:  60; 6HR MAX TEMP:  83;

$$

NEZ057>060-069>072-079>082-271900-
SOUTHWEST NEBRASKA

CITY           SKY/WX    TMP DP  RH WIND       PRES   REMARKS
NORTH PLATTE   SUNNY     81  62  52 N12       30.11F
6HR MIN TEMP:  60; 6HR MAX TEMP:  82;

IMPERIAL       MOSUNNY   83  60  45 NE9       30.12F
6HR MIN TEMP:  60; 6HR MAX TEMP:  84;

LEXINGTON      SUNNY     80  66  62 CALM      30.10F
MCCOOK         TSTM      71  66  84 N7        30.09F
6HR MIN TEMP:  61; 6HR MAX TEMP:  75; 6HR PCP:  0.10;

OGALLALA       CLOUDY    79  58  49 SE12G17   30.10F
$$

NEZ005>010-023>029-035>040-094-271900-
NORTH CENTRAL NEBRASKA

CITY           SKY/WX    TMP DP  RH WIND       PRES   REMARKS
VALENTINE      CLOUDY    83  59  44 MISG      30.07R
6HR MIN TEMP:  61; 6HR MAX TEMP:  83;

AINSWORTH      PTSUNNY   79  65  61 CALM      30.08S
BROKEN BOW     MOSUNNY   76  65  68 VRB3      30.10F
6HR MIN TEMP:  61; 6HR MAX TEMP:  77;

O`NEILL        SUNNY     81  59  47 W5        30.06F
ORD            SUNNY     80  62  54 VRB3      30.06F
6HR MIN TEMP:  62; 6HR MAX TEMP:  80;

THEDFORD       LGT RAIN  76  64  65 SE6       30.09F
$$

NEZ041-046>049-061>064-073>077-083>087-271900-
SOUTH CENTRAL NEBRASKA

CITY           SKY/WX    TMP DP  RH WIND       PRES   REMARKS
GRAND ISLAND   SUNNY     83  63  50 VRB5      30.07F
6HR MIN TEMP:  64; 6HR MAX TEMP:  83;

AURORA         SUNNY     81  64  55 NW3       30.06F
HASTINGS       SUNNY     81  65  58 NE8       30.09S
6HR MIN TEMP:  63; 6HR MAX TEMP:  81;

HEBRON         PTSUNNY   82  62  49 NW3       30.05F
HOLDREGE       SUNNY     79  67  65 E8        30.09F
KEARNEY *      SUNNY     82  19   9 NE8       30.10F
YORK           SUNNY     82  68  61 N7        30.05S
$$

NEZ011>018-030>034-042>045-271900-
NORTHEAST NEBRASKA

CITY           SKY/WX    TMP DP  RH WIND       PRES   REMARKS
NORFOLK        SUNNY     82  63  52 N12       30.03S
6HR MIN TEMP:  68; 6HR MAX TEMP:  82;

ALBION         SUNNY     78  65  64 CALM      30.06S
BLAIR          MOSUNNY   82  67  61 CALM      30.00S
FREMONT        PTSUNNY   82  66  59 NW3       30.01S
TEKAMAH        SUNNY     81  66  60 NE7       30.00S
6HR MIN TEMP:  70; 6HR MAX TEMP:  82;

WAYNE          SUNNY     82  67  61 N8        30.02S
$$

NEZ050>053-065>068-078-088>093-271900-
SOUTHEAST NEBRASKA

CITY           SKY/WX    TMP DP  RH WIND       PRES   REMARKS
LINCOLN        MOSUNNY   86  63  45 NW10      30.00F
6HR MIN TEMP:  73; 6HR MAX TEMP:  87;

OMAHA EPPLEY   MOSUNNY   86  66  51 NW9       29.98S
6HR MIN TEMP:  72; 6HR MAX TEMP:  87;

BEATRICE       PTSUNNY   83  69  61 W3        30.02F
FALLS CITY     PTSUNNY   84  71  65 NE3       29.99F
6HR MIN TEMP:  66; 6HR MAX TEMP:  87;

NEBRASKA CITY  PTSUNNY   82  71  69 SW9       30.00F
$$

NEZ044-045-051>053-067-271900-
OMAHA AREA

CITY           SKY/WX    TMP DP  RH WIND       PRES   REMARKS
OMAHA EPPLEY   MOSUNNY   86  66  51 NW9       29.98S
6HR MIN TEMP:  72; 6HR MAX TEMP:  87;

BLAIR          MOSUNNY   82  67  61 CALM      30.00S
FREMONT        PTSUNNY   82  66  59 NW3       30.01S
MILLARD        MOSUNNY   84  66  55 W10       29.98F
OFFUTT AFB     MOSUNNY   85  67  53 W13       29.98S
WAHOO          FAIR      83  66  57 NW3       30.00F
$$




USA.gov is the U.S. government's official web portal to all federal, state and local government web resources and services.